Seattle Boeing, WA
on Sunday, November 25, 2012

Sunday
Previous Day Next Day
Daily Summary
 ActualAverage (KSEA)Record (KSEA)
Temperature
Mean Temperature °F 43°F  
Max Temperature 46°F 49°F 59°F (1949)
Min Temperature 37°F 38°F 18°F (1985)
Degree Days
Heating Degree Days 24 22  
Month to date heating degree days 475  
Since 1 July heating degree days 1072  
Cooling Degree Days 0 0  
Month to date cooling degree days 0  
Year to date cooling degree days 189  
Moisture
Dew Point 38°F   
Average Humidity 89    
Maximum Humidity 100    
Minimum Humidity 66    
Precipitation
Precipitation 0.00 in 0.22 in 3.04 in (1998)
Month to date precipitation 5.47  
Year to date precipitation 31.04  
Snow
Snow 0.00 in in 0.50 in (1985)
Month to date snowfall  
Since 1 July snowfall  
Snow Depth in   
Wind
Wind Speed 2 mph   
Max Wind Speed 8 mph   
Max Gust Speed mph   
Visibility 4 miles   
Events Fog   

Key: T is trace of precipitation, MM is missing value
Source: NWS Daily Summary
Time(PST)TemperatureDew PointHumidity Pressure Visibility Wind DirectionWind SpeedGust SpeedPrecipitationEvents Conditions
12:08 AM 41.0°F 39.2°F 93% 30.28 in 6.0 miles Calm Calm - N/A   Overcast
12:40 AM 39.2°F 37.4°F 93% 30.28 in 6.0 miles SE 3.5 mph - N/A   Overcast
12:53 AM 39.0°F 37.0°F 93% 30.27 in 6.0 miles SE 4.6 mph - N/A   Mostly Cloudy
1:00 AM 37.4°F 35.6°F 93% 30.28 in 5.0 miles SE 3.5 mph - N/A   Mostly Cloudy
1:23 AM 39.2°F 37.4°F 93% 30.28 in 1.2 miles ESE 3.5 mph - N/A   Mostly Cloudy
1:28 AM 41.0°F 39.2°F 93% 30.28 in 0.2 miles Calm Calm - N/A Fog Fog
1:53 AM 41.0°F 39.0°F 93% 30.29 in 0.2 miles Calm Calm - N/A Fog Fog
2:18 AM 39.2°F 37.4°F 93% 30.29 in 0.5 miles Calm Calm - N/A Fog Fog
2:28 AM 39.2°F 37.4°F 93% 30.29 in 0.5 miles Calm Calm - N/A Fog Fog
2:43 AM 39.2°F 39.2°F 100% 30.29 in 1.0 miles Calm Calm - N/A   Mist
2:53 AM 39.9°F 39.0°F 97% 30.30 in 0.5 miles Calm Calm - N/A Fog Fog
3:00 AM 39.2°F 39.2°F 100% 30.29 in 0.5 miles Calm Calm - N/A Fog Fog
3:15 AM 37.4°F 35.6°F 93% 30.30 in 0.5 miles Calm Calm - N/A Fog Fog
3:23 AM 39.2°F 37.4°F 93% 30.30 in 0.2 miles Calm Calm - N/A Fog Fog
3:53 AM 37.9°F 37.0°F 97% 30.30 in 0.1 miles SE 3.5 mph - N/A Fog Fog
4:40 AM 37.4°F 35.6°F 93% 30.31 in 0.1 miles Calm Calm - N/A Fog Fog
4:53 AM 37.9°F 37.0°F 97% 30.31 in 0.1 miles Calm Calm - N/A Fog Fog
5:53 AM 39.0°F 37.9°F 96% 30.31 in 0.1 miles Calm Calm - N/A Fog Fog
6:53 AM 39.9°F 37.9°F 93% 30.32 in 0.2 miles West 3.5 mph - N/A Fog Fog
7:53 AM 39.9°F 39.0°F 97% 30.33 in 0.2 miles Calm Calm - N/A Fog Fog
8:53 AM 39.9°F 39.0°F 97% 30.34 in 0.2 miles Calm Calm - N/A Fog Fog
9:00 AM 39.2°F 39.2°F 100% 30.34 in 1.0 miles NW 3.5 mph - N/A   Overcast
9:53 AM 41.0°F 39.9°F 96% 30.35 in 2.0 miles Calm Calm - N/A   Overcast
10:23 AM 42.8°F 39.2°F 87% 30.35 in 2.0 miles Calm Calm - N/A   Overcast
10:53 AM 42.1°F 39.0°F 89% 30.35 in 2.0 miles NE 4.6 mph - N/A   Overcast
11:53 AM 45.0°F 39.0°F 80% 30.34 in 4.0 miles North 4.6 mph - N/A   Haze
12:07 PM 46.4°F 39.2°F 76% 30.33 in 10.0 miles NNW 8.1 mph - N/A   Scattered Clouds
12:53 PM 46.9°F 39.0°F 74% 30.32 in 10.0 miles NNW 8.1 mph - N/A   Scattered Clouds
1:53 PM 46.9°F 39.0°F 74% 30.31 in 10.0 miles NNW 8.1 mph - N/A   Scattered Clouds
2:53 PM 46.9°F 36.0°F 66% 30.30 in 10.0 miles North 3.5 mph - N/A   Partly Cloudy
3:53 PM 46.0°F 36.0°F 68% 30.30 in 10.0 miles NNE 4.6 mph - N/A   Partly Cloudy
4:53 PM 44.1°F 35.1°F 71% 30.30 in 10.0 miles North 4.6 mph - N/A   Scattered Clouds
5:53 PM 43.0°F 35.1°F 74% 30.28 in 10.0 miles North 3.5 mph - N/A   Clear
6:53 PM 42.1°F 36.0°F 79% 30.27 in 10.0 miles Calm Calm - N/A   Clear
7:53 PM 41.0°F 36.0°F 82% 30.27 in 10.0 miles Variable 4.6 mph - N/A   Clear
8:53 PM 41.0°F 37.0°F 86% 30.26 in 10.0 miles North 3.5 mph - N/A   Clear
9:53 PM 39.9°F 37.0°F 89% 30.25 in 10.0 miles Calm Calm - N/A   Clear
10:19 PM 39.2°F 35.6°F 87% 30.24 in 10.0 miles NW 3.5 mph - N/A   Partly Cloudy
10:53 PM 39.9°F 36.0°F 86% 30.23 in 10.0 miles North 4.6 mph - N/A   Scattered Clouds
11:53 PM 39.0°F 36.0°F 89% 30.22 in 10.0 miles NNW 4.6 mph - N/A   Scattered Clouds
Moon Phase
Nov. 25 Nov. 28 Dec. 06 Dec. 13 Dec. 20
Sunrise:07:29 AM (PST) Moon Rise:02:49 PM (PST)
Sunset:04:23 PM (PST) Moon Set:04:40 AM (PST)

Copyright © 2014 The Weather Underground, Inc.